Flag Weather past 2 weeks in Buchholz in der Nordheide, Lower Saxony, Germany

Now
37 °F

Fog.


Feels Like: 34 °F
Forecast: 36 / 42 °F
Wind: 5 mph from Southeast

Location: Hamburg-Fuhlsbuettel

Current Time: Nov 25, 2014 at 11:06:11 PM

Latest Report: Nov 25, 2014 at 10:20 PM


Visibility: 1 mi

Pressure: 30.30 "Hg

Humidity: 100%

Dew point: 37 °F

Location of Buchholz in der NordheideLocation

Historic Weather in Buchholz in der Nordheide — Graph

°F

Buchholz in der Nordheide temperature yesterday

Maximum temperature yesterday: 50 °F (at 4:20 AM)
Minimum temperature yesterday: 43 °F (at 11:20 PM)
Average temperature yesterday: 47 °F

Past Weeks' High & Low Weather Summary

 TemperatureHumidityPressure
High54 °F (Nov 14, 12:50 PM)100% (Nov 10, 10:50 PM)30.36 "Hg (Nov 10, 10:50 PM)
Low28 °F (Nov 21, 2:20 AM)76% (Nov 20, 1:20 PM)29.56 "Hg (Nov 16, 12:20 PM)
Average45 °F93%29.98 "Hg
* Reported Nov 10 9:20 PM — Nov 25 9:50 PM, Buchholz in der Nordheide, Weather by CustomWeather, © 2014

Note: Actual official high and low records may vary slightly from our data, if they occured in-between our weather recording intervals... More about our weather records

Advertising

Buchholz in der Nordheide weather history for previous 24 hours

 ConditionsComfort  
Time TempWeatherWind HumidityBarometerVisibility
9:50 PM
Nov 25
37 °FFog.5 mph100%30.30 "Hg1 mi
9:20 PM37 °FFog.6 mph100%30.33 "Hg1 mi
8:50 PM37 °FFog.6 mph100%30.33 "Hg1 mi
8:20 PM39 °FFog.3 mph100%30.33 "Hg1 mi
7:50 PM39 °FFog.3 mph100%30.33 "Hg1 mi
7:20 PM39 °FFog.3 mph100%30.33 "Hg0 mi
6:50 PM39 °FFog.3 mph100%30.33 "Hg0 mi
6:20 PM41 °FFog.3 mph100%30.30 "Hg0 mi
5:50 PM41 °FFog.2 mph100%30.30 "Hg0 mi
5:20 PM41 °FFog.3 mph100%30.33 "Hg0 mi
4:50 PM41 °FFog.3 mph100%30.33 "Hg0 mi
4:20 PM41 °FFog.3 mph100%30.33 "Hg0 mi
3:50 PM43 °FFog.2 mph100%30.33 "Hg0 mi
3:20 PM43 °FFog.1 mph100%30.33 "Hg0 mi
2:50 PM43 °FFog.2 mph100%30.33 "Hg0 mi
2:20 PM43 °FFog.2 mph100%30.33 "Hg0 mi
1:50 PM43 °FFog.1 mph100%30.33 "Hg0 mi
1:20 PM43 °FFog.2 mph100%30.33 "Hg0 mi
12:50 PM43 °FFog.1 mph100%30.33 "Hg0 mi
12:20 PM43 °FFog.1 mph100%30.33 "Hg0 mi
11:50 AM43 °FFog.2 mph100%30.33 "Hg0 mi
11:20 AM41 °FFog.1 mph100%30.36 "Hg0 mi
10:50 AM41 °FFog.1 mph100%30.36 "Hg0 mi
10:20 AM39 °FFog.2 mph100%30.33 "Hg0 mi
9:50 AM39 °FFog.1 mph100%30.33 "Hg0 mi
9:20 AM37 °FFog.1 mph100%30.33 "Hg0 mi
8:50 AM37 °FFog.No wind100%30.33 "Hg0 mi
8:20 AM37 °FFog.2 mph100%30.33 "Hg0 mi
7:50 AM36 °FFog.1 mph100%30.33 "Hg0 mi
7:20 AM36 °FFog.No wind100%30.33 "Hg0 mi
6:50 AM34 °FFog.1 mph100%30.33 "Hg0 mi
6:20 AM34 °FFog.1 mph100%30.30 "Hg0 mi
5:50 AM34 °FFog.No wind100%30.30 "Hg0 mi
5:20 AM32 °FFog.2 mph100%30.30 "Hg0 mi
4:50 AM34 °FFog.1 mph100%30.30 "Hg0 mi
4:20 AM36 °FFog.No wind100%30.30 "Hg0 mi
3:50 AM36 °FFog.1 mph100%30.30 "Hg1 mi
3:20 AM34 °FFog.1 mph100%30.30 "Hg1 mi
2:50 AM36 °FFog.1 mph100%30.30 "Hg1 mi
2:20 AM37 °FFog.No wind100%30.30 "Hg1 mi
1:50 AM37 °FChilly.1 mph100%30.27 "HgN/A
1:20 AM41 °FClear.2 mph100%30.27 "Hg10 mi
12:50 AM43 °FPassing clouds.3 mph93%30.27 "HgN/A
12:20 AM43 °FPassing clouds.3 mph100%30.27 "HgN/A
11:50 PM
Nov 24
43 °FPassing clouds.3 mph100%30.27 "HgN/A
11:20 PM43 °FPassing clouds.6 mph100%30.27 "HgN/A
Weather by CustomWeather, © 2014

See weather overviewHow to use our weather pages